"2010-04-05 00:00:00",1823317,7.713,125.7,7.823,1.471,13.4,104.7153,11.34,12.54,19.27,0,110.3,13.31,12.14,87.7
"2010-04-05 00:00:30",1823318,9.7,135.3,5.554,1.048,15.47,104.7169,11.35,12.63,19.28,0,110.3,13.31,12.14,97.3
"2010-04-05 00:01:00",1823319,7.83,131.4,6.916,1.188,12.51,104.7155,11.34,12.43,19.08,0,110.3,13.31,12.14,93.4
"2010-04-05 00:01:30",1823320,7.255,126.8,3.83,0.365,10.26,104.7122,11.34,12.4,19.09,0,110.3,13.34,12.13,88.8
"2010-04-05 00:02:00",1823321,8.73,131.1,7.891,1.432,12.15,104.7113,11.33,12.47,19.14,0,110.3,13.31,12.13,93.1
"2010-04-05 00:02:30",1823322,7.799,123.9,4.227,0.547,10.25,104.7037,11.31,12.34,19.04,0,110.3,13.34,12.11,85.9
"2010-04-05 00:03:00",1823323,7.524,127.7,2.353,0.523,10.52,104.7026,11.31,12.35,18.97,0,110.3,13.34,12.10,89.7
"2010-04-05 00:03:30",1823324,8.55,140.1,7.724,1.393,13.13,104.7023,11.31,12.47,19.13,0,110.3,13.31,12.10,102.1
"2010-04-05 00:04:00",1823325,8.86,142.1,6.769,1.104,14.18,104.7023,11.31,12.56,18.85,0,110.3,13.31,12.10,104.1
"2010-04-05 00:04:30",1823326,8.2,138.6,8.02,1.218,14.22,104.7023,11.31,12.6,19.03,0,110.3,13.3,12.10,100.6
"2010-04-05 00:05:00",1823327,7.665,134.4,6.401,1.349,12.21,104.7023,11.31,12.37,19.04,0,110.3,13.3,12.10,96.4
"2010-04-05 00:05:30",1823328,6.719,127.3,5.514,1.063,12.19,104.7023,11.31,12.48,19.27,0,110.3,13.3,12.10,89.3
"2010-04-05 00:06:00",1823329,6.467,124.2,4.995,0.911,10.58,104.7023,11.31,12.31,19.2,0,110.3,13.3,12.10,86.2
"2010-04-05 00:06:30",1823330,6.945,130.2,3.63,0.723,10.52,104.7023,11.31,12.31,19.14,0,110.3,13.3,12.10,92.2
"2010-04-05 00:07:00",1823331,6.283,125,4.927,1.037,11.57,104.6933,11.29,12.46,19.32,0,110.3,13.3,12.08,87.0
"2010-04-05 00:07:30",1823332,7.553,122.9,8.7,1.309,12.86,104.6744,11.24,12.36,19.3,0,110.3,13.3,12.03,84.9
"2010-04-05 00:08:00",1823333,8.52,123.7,7.998,1.286,14.37,104.6685,11.22,12.53,19.67,0,110.3,13.3,12.02,85.7
"2010-04-05 00:08:30",1823334,8.6,125.8,6.061,1.218,14.24,104.6685,11.22,12.47,19.67,0,110.3,13.3,12.02,87.8
"2010-04-05 00:09:00",1823335,7.117,129.7,5.611,0.653,11.15,104.6685,11.22,12.4,19.48,0,110.3,13.3,12.02,91.7
"2010-04-05 00:09:30",1823336,7.819,137.4,5.17,1.079,11.98,104.6685,11.22,12.29,19.38,0,110.3,13.3,12.02,99.4
"2010-04-05 00:10:00",1823337,7.276,134.8,2.503,0.146,10.37,104.6665,11.22,12.23,19.33,0,110.3,13.34,12.01,96.8
"2010-04-05 00:10:30",1823338,8.34,138.3,5.975,1.322,12.81,104.6578,11.2,12.36,19.45,0,110.3,13.31,11.99,100.3
"2010-04-05 00:11:00",1823339,7.475,128.5,6.464,0.9,12.44,104.6437,11.16,12.33,19.5,0,110.3,13.31,11.95,90.5
"2010-04-05 00:11:30",1823340,8.18,133.2,6.796,1.43,13.36,104.6352,11.14,12.35,19.52,0,110.3,13.31,11.93,95.2
"2010-04-05 00:12:00",1823341,8.51,134.1,7.833,1.372,13.56,104.6346,11.14,12.42,19.66,0,110.3,13.31,11.93,96.1
"2010-04-05 00:12:30",1823342,8.11,137.3,7.853,1.304,13.76,104.6346,11.14,12.38,19.66,0,110.3,13.31,11.93,99.3
"2010-04-05 00:13:00",1823343,6.363,121.2,3.778,0.454,10.84,104.6349,11.14,12.31,19.58,0,110.3,13.34,11.93,83.2
"2010-04-05 00:13:30",1823344,6.564,114.8,2.672,0.197,10.19,104.6346,11.14,12.18,19.44,0,110.3,13.34,11.93,76.8
"2010-04-05 00:14:00",1823345,7.522,117.3,6.372,1.217,11.07,104.6347,11.14,12.16,19.5,0,110.3,13.31,11.93,79.3
"2010-04-05 00:14:30",1823346,7.71,132.7,8.37,1.217,12.74,104.631,11.13,12.3,19.88,0,110.3,13.31,11.92,94.7
"2010-04-05 00:15:00",1823347,7.439,135.5,7.647,1.346,12.03,104.626,11.12,12.17,19.98,0,110.3,13.31,11.91,97.5
"2010-04-05 00:15:30",1823348,9.63,135.6,7.038,1.034,13.54,104.6266,11.12,12.41,20.2,0,110.3,13.31,11.91,97.6
"2010-04-05 00:16:00",1823349,8.87,132.5,6.143,1.119,14.39,104.6274,11.12,12.41,20.1,0,110.3,13.31,11.91,94.5
"2010-04-05 00:16:30",1823350,8.58,129.7,9.78,1.412,12.91,104.6215,11.1,12.36,19.98,0,110.3,13.31,11.89,91.7
"2010-04-05 00:17:00",1823351,8.11,125.6,7.116,1.448,12.17,104.6215,11.1,12.2,19.85,0,110.3,13.31,11.89,87.6
"2010-04-05 00:17:30",1823352,7.061,124.4,2.326,0.319,10.05,104.6178,11.09,12.14,19.97,0,110.3,13.35,11.89,86.4
"2010-04-05 00:18:00",1823353,7.839,130.9,8.58,1.299,12.41,104.6218,11.1,12.27,20.02,0,110.3,13.31,11.90,92.9
"2010-04-05 00:18:30",1823354,7.72,120,6.625,1.112,11.48,104.6235,11.11,12.17,19.88,0,110.3,13.31,11.90,82.0
"2010-04-05 00:19:00",1823355,7.594,114.1,5.838,1.098,12.83,104.6317,11.13,12.28,20.02,0,110.3,13.31,11.92,76.1
"2010-04-05 00:19:30",1823356,7.185,114.2,4.861,1.035,11.04,104.6335,11.13,12.15,19.88,0,110.3,13.31,11.93,76.2
"2010-04-05 00:20:00",1823357,7.832,119.4,7.319,1.268,12.66,104.6365,11.14,12.36,19.86,0,110.3,13.31,11.93,81.4
"2010-04-05 00:20:30",1823358,8.33,122.6,5.581,1.268,13.84,104.6376,11.15,12.39,19.81,0,110.3,13.31,11.94,84.6
"2010-04-05 00:21:00",1823359,7.36,114.9,7.275,1.056,11.32,104.6371,11.14,12.15,19.68,0,110.3,13.31,11.93,76.9
"2010-04-05 00:21:30",1823360,7.089,113.2,7.7,0.76,10.88,104.6412,11.15,12.2,20.01,0,110.3,13.31,11.95,75.2
"2010-04-05 00:22:00",1823361,8.41,121.9,7.863,1.027,12.26,104.6352,11.14,12.19,20.26,0,110.3,13.31,11.93,83.9
"2010-04-05 00:22:30",1823362,9.28,127.2,6.877,1.12,13.91,104.6349,11.14,12.28,20.47,0,110.3,13.31,11.93,89.2
"2010-04-05 00:23:00",1823363,7.98,120.7,5.886,0.881,12.09,104.6349,11.14,12.29,20.47,0,110.3,13.31,11.93,82.7
"2010-04-05 00:23:30",1823364,7.512,116.6,5.526,0.942,11.8,104.631,11.13,12.31,20.27,0,110.3,13.31,11.92,78.6
"2010-04-05 00:24:00",1823365,9.2,128.3,6.699,1.156,14.18,104.6285,11.12,12.36,20.07,0,110.3,13.3,11.91,90.3
"2010-04-05 00:24:30",1823366,9.18,122.3,7.5,1.27,13.11,104.6272,11.12,12.34,20.11,0,110.3,13.31,11.91,84.3
"2010-04-05 00:25:00",1823367,7.928,117.6,5.521,0.855,10.65,104.6235,11.11,12.13,19.79,0,110.3,13.3,11.90,79.6
"2010-04-05 00:25:30",1823368,7.928,113.5,6.178,0.943,10.93,104.618,11.09,12.12,19.76,0,110.3,13.31,11.89,75.5
"2010-04-05 00:26:00",1823369,8.3,125.2,6.401,1.274,13.66,104.6114,11.08,12.38,20.02,0,110.3,13.31,11.87,87.2
"2010-04-05 00:26:30",1823370,8.35,123.9,8.39,1.372,12.74,104.6102,11.07,12.26,20.13,0,110.3,13.31,11.87,85.9
"2010-04-05 00:27:00",1823371,8.26,128.2,7.528,1.407,11.68,104.6111,11.08,12.12,20.46,0,110.3,13.31,11.87,90.2
"2010-04-05 00:27:30",1823372,6.863,124.8,7.28,1.101,11.99,104.6117,11.08,12.28,20.85,0,110.3,13.31,11.87,86.8
"2010-04-05 00:28:00",1823373,8.17,128,7.647,1.391,13.45,104.6108,11.08,12.25,20.75,0,110.3,13.31,11.87,90.0
"2010-04-05 00:28:30",1823374,6.735,117.1,3.594,0.413,10.84,104.6111,11.08,12.22,20.45,0,110.3,13.35,11.87,79.1
"2010-04-05 00:29:00",1823375,6.706,117.2,2.313,0.317,10.24,104.6131,11.08,12.12,20.26,0,110.3,13.35,11.87,79.2
"2010-04-05 00:29:30",1823376,8.84,123.9,7.32,1.303,13.63,104.61,11.07,12.3,20.22,0,110.3,13.31,11.87,85.9
"2010-04-05 00:30:00",1823377,7.585,126.3,8.85,1.312,12.99,104.6117,11.08,12.27,20.17,0,110.3,13.31,11.87,88.3
"2010-04-05 00:30:30",1823378,6.934,109.5,1.47,0.212,10.5,104.6117,11.08,12.11,20.05,0,110.3,13.35,11.87,71.5
"2010-04-05 00:31:00",1823379,7.71,111.7,6.751,1.051,12.12,104.6117,11.08,12.29,20.17,0,110.3,13.31,11.87,73.7
"2010-04-05 00:31:30",1823380,8.3,112.1,9.06,1.175,12.37,104.6114,11.08,12.23,20.1,0,110.3,13.31,11.87,74.1
"2010-04-05 00:32:00",1823381,7.474,118.9,5.875,1.369,12.34,104.6126,11.08,12.33,20.27,0,110.3,13.31,11.87,80.9
"2010-04-05 00:32:30",1823382,7.872,119.6,4.58,1.17,11.76,104.6126,11.08,12.12,20.13,0,110.3,13.31,11.87,81.6
"2010-04-05 00:33:00",1823383,8.15,122.9,7.678,1.137,12.39,104.6164,11.09,12.36,20.12,0,110.3,13.31,11.88,84.9
"2010-04-05 00:33:30",1823384,9,125,7.46,1.333,13.71,104.6135,11.08,12.32,19.98,0,110.3,13.31,11.87,87.0
"2010-04-05 00:34:00",1823385,8.36,118.8,6.45,1.362,12.67,104.6156,11.09,12.23,20.02,0,110.3,13.31,11.88,80.8
"2010-04-05 00:34:30",1823386,7.775,117.5,4.353,1.118,11.94,104.6153,11.09,12.27,20.08,0,110.3,13.31,11.88,79.5
"2010-04-05 00:35:00",1823387,7.784,112.7,5.832,1.216,11.44,104.6135,11.08,12.12,20.01,0,110.3,13.31,11.87,74.7
"2010-04-05 00:35:30",1823388,8.64,117.9,6.936,1.383,13.56,104.6182,11.1,12.34,20.25,0,110.3,13.31,11.89,79.9
"2010-04-05 00:36:00",1823389,7.32,115.7,6.899,1.347,11.61,104.6188,11.1,12.07,19.95,0,110.3,13.31,11.89,77.7
"2010-04-05 00:36:30",1823390,7.088,119.6,5.473,1.311,12.22,104.6138,11.08,12.14,20.02,0,110.3,13.31,11.87,81.6
"2010-04-05 00:37:00",1823391,7.895,120.9,8.16,1.312,13.72,104.6131,11.08,12.27,20.07,0,110.3,13.31,11.87,82.9
"2010-04-05 00:37:30",1823392,8.46,132.6,6.839,1.24,14.04,104.6123,11.08,12.27,20.19,0,110.3,13.31,11.87,94.6
"2010-04-05 00:38:00",1823393,8.02,121,6.223,1.254,12.6,104.6067,11.07,12.11,20,0,110.3,13.31,11.86,83.0
"2010-04-05 00:38:30",1823394,6.563,114.8,4.266,0.474,11.11,104.5961,11.04,12.19,20.05,0,110.3,13.35,11.83,76.8
"2010-04-05 00:39:00",1823395,7.884,123,5.429,1.291,13.51,104.5947,11.04,12.21,20.14,0,110.3,13.31,11.83,85.0
"2010-04-05 00:39:30",1823396,7.418,126.5,6.499,1.321,12.68,104.5956,11.04,12.09,20.01,0,110.3,13.31,11.83,88.5
"2010-04-05 00:40:00",1823397,6.148,119.2,2.171,0.516,10.6,104.5965,11.04,12.13,20.1,0,110.3,13.31,11.83,81.2
"2010-04-05 00:40:30",1823398,6.962,122.6,7.02,1.277,13.18,104.5968,11.04,12.27,20.29,0,110.3,13.31,11.83,84.6
"2010-04-05 00:41:00",1823399,7.324,126.2,6.995,1.317,13.51,104.5929,11.03,12.18,20.31,0,110.3,13.31,11.82,88.2
"2010-04-05 00:41:30",1823400,5.921,119.2,3.36,0.902,10.86,104.5797,11,12.02,20.2,0,110.3,13.31,11.79,81.2
"2010-04-05 00:42:00",1823401,6.071,120.1,3.835,1.028,11.95,104.5673,10.97,12.17,20.46,0,110.3,13.31,11.76,82.1
"2010-04-05 00:42:30",1823402,7.05,122.4,6.316,1.304,12.7,104.5682,10.97,12.09,20.45,0,110.3,13.31,11.76,84.4
"2010-04-05 00:43:00",1823403,6.788,122.8,5.222,1.512,11.87,104.5682,10.97,12.01,20.54,0,110.3,13.31,11.76,84.8
"2010-04-05 00:43:30",1823404,6.955,123.3,7.156,1.304,12.96,104.5685,10.97,12.14,20.72,0,110.3,13.31,11.76,85.3
"2010-04-05 00:44:00",1823405,7.256,125.7,8.46,1.484,12.94,104.5586,10.94,12.18,20.77,0,110.3,13.32,11.73,87.7
"2010-04-05 00:44:30",1823406,7.792,126,7.001,1.38,13.54,104.542,10.9,12.21,20.42,0,110.3,13.32,11.69,88.0
"2010-04-05 00:45:00",1823407,7.315,124.4,7.315,1.16,12.39,104.5347,10.88,11.98,20.15,0,110.3,13.32,11.67,86.4
"2010-04-05 00:45:30",1823408,7.925,127.1,6.703,1.306,13.09,104.5347,10.88,12.07,20.1,0,110.3,13.32,11.67,89.1
"2010-04-05 00:46:00",1823409,6.787,122.1,4.883,0.83,11.68,104.5319,10.87,12.09,20.11,0,110.3,13.32,11.66,84.1
"2010-04-05 00:46:30",1823410,7.805,128.5,8.32,1.386,13.27,104.5116,10.82,12.07,20.11,0,110.3,13.32,11.61,90.5
"2010-04-05 00:47:00",1823411,6.839,119.5,2.08,0.093,11.17,104.5011,10.8,11.95,20.03,0,110.3,13.36,11.59,81.5
"2010-04-05 00:47:30",1823412,8.03,123.2,6.311,1.341,13.76,104.5008,10.8,12.12,20.25,0,110.3,13.32,11.58,85.2
"2010-04-05 00:48:00",1823413,8.45,121.6,7.103,1.113,14.11,104.5008,10.8,12.05,20.15,0,110.3,13.32,11.58,83.6
"2010-04-05 00:48:30",1823414,7.289,116.2,6.311,1.132,12.06,104.5003,10.79,11.86,19.93,0,110.3,13.32,11.58,78.2
"2010-04-05 00:49:00",1823415,6.817,114.3,5.421,1.141,11.47,104.4952,10.78,11.87,20.04,0,110.3,13.32,11.57,76.3
"2010-04-05 00:49:30",1823416,7.535,117.9,6.864,1.384,13.69,104.4873,10.76,11.99,20.18,0,110.3,13.32,11.55,79.9
"2010-04-05 00:50:00",1823417,7.082,117.4,6.852,1.375,12.6,104.4709,10.72,11.82,20.05,0,110.3,13.32,11.51,79.4
"2010-04-05 00:50:30",1823418,7.433,120.2,7.303,1.392,13.08,104.467,10.71,11.94,20.21,0,110.3,13.32,11.50,82.2
"2010-04-05 00:51:00",1823419,7.692,119.3,6.409,1.292,12.82,104.467,10.71,11.98,20.4,0,110.3,13.32,11.50,81.3
"2010-04-05 00:51:30",1823420,8.33,122.7,6.837,1.13,14.57,104.467,10.71,12.02,20.43,0,110.3,13.32,11.50,84.7
"2010-04-05 00:52:00",1823421,6.719,114.5,1.185,0.118,10.8,104.467,10.71,11.8,20.35,0,110.3,13.36,11.50,76.5
"2010-04-05 00:52:30",1823422,8.09,119.8,6.771,1.305,13.14,104.4673,10.71,11.86,20.54,0,110.3,13.33,11.50,81.8
"2010-04-05 00:53:00",1823423,7.558,121,6.758,1.202,12.55,104.4656,10.7,11.97,20.71,0,110.3,13.33,11.49,83.0
"2010-04-05 00:53:30",1823424,7.843,120.7,6.881,1.457,12.55,104.4585,10.69,11.77,20.66,0,110.3,13.33,11.48,82.7
"2010-04-05 00:54:00",1823425,7.442,122.5,7.473,1.31,12.88,104.4482,10.66,11.98,20.94,0,110.3,13.33,11.45,84.5
"2010-04-05 00:54:30",1823426,8.47,125.9,6.11,1.025,14.65,104.4384,10.64,11.93,20.82,0,110.3,13.33,11.42,87.9
"2010-04-05 00:55:00",1823427,9.01,123.4,7.396,1.12,14.23,104.4391,10.64,11.89,20.83,0,110.3,13.33,11.43,85.4
"2010-04-05 00:55:30",1823428,7.967,115.8,5.956,0.945,11.93,104.4414,10.64,11.94,21.15,0,110.3,13.33,11.43,77.8
"2010-04-05 00:56:00",1823429,8.65,113.8,7.053,1.161,11.67,104.4449,10.65,11.68,21.16,0,110.3,13.33,11.44,75.8
"2010-04-05 00:56:30",1823430,8.75,118.5,7.326,1.333,13.33,104.4488,10.66,11.97,21.54,0,110.3,13.33,11.45,80.5
"2010-04-05 00:57:00",1823431,8.64,121.3,6.97,1.316,13.19,104.4497,10.66,11.77,21.3,0,110.2,13.33,11.45,83.3
"2010-04-05 00:57:30",1823432,8.56,120.7,6.771,1.337,12.92,104.45,10.67,11.8,21.36,0,110.3,13.33,11.45,82.7
"2010-04-05 00:58:00",1823433,8.92,121.6,7.119,1.283,13.3,104.4448,10.65,11.88,21.48,0,110.3,13.33,11.44,83.6
"2010-04-05 00:58:30",1823434,8.44,122,6.765,1.33,13.33,104.4322,10.62,11.85,21.39,0,110.2,13.33,11.41,84.0
"2010-04-05 00:59:00",1823435,7.075,114.2,2.451,0.47,11.09,104.4338,10.62,11.76,21.16,0,110.2,13.36,11.41,76.2
"2010-04-05 00:59:30",1823436,8.45,114.9,6.478,1.07,12.55,104.4344,10.63,11.66,21.02,0,110.3,13.33,11.41,76.9
"2010-04-05 01:00:00",1823437,9.05,117.4,5.689,1.288,13.84,104.4341,10.62,11.82,21.3,0,110.2,13.34,11.41,79.4
"2010-04-05 01:00:30",1823438,7.685,114.6,4.428,1.06,11.31,104.4347,10.63,11.7,21.16,0,110.2,13.34,11.42,76.6
"2010-04-05 01:01:00",1823439,7.814,119,7.28,1.287,12.6,104.4347,10.63,11.83,21.26,0,110.2,13.34,11.42,81.0
"2010-04-05 01:01:30",1823440,8.63,123.3,6.568,1.263,13.53,104.4316,10.62,11.83,21.33,0,110.2,13.34,11.41,85.3
"2010-04-05 01:02:00",1823441,7.786,120.9,6.266,1.155,12.23,104.422,10.59,11.69,21.17,0,110.2,13.34,11.38,82.9
"2010-04-05 01:02:30",1823442,8.1,122.9,6.452,1.288,12.61,104.4084,10.56,11.73,21.28,0,110.2,13.34,11.35,84.9
"2010-04-05 01:03:00",1823443,7.585,119.5,5.707,1.171,12.14,104.4016,10.54,11.76,21.45,0,110.2,13.34,11.33,81.5
"2010-04-05 01:03:30",1823444,8.55,118.2,6.743,1.268,13.12,104.4008,10.54,11.69,21.62,0,110.2,13.34,11.33,80.2
"2010-04-05 01:04:00",1823445,7.927,112,3.81,0.947,11.75,104.4008,10.54,11.71,21.72,0,110.2,13.34,11.33,74.0
"2010-04-05 01:04:30",1823446,8.86,116.2,6.958,1.339,13.63,104.4008,10.54,11.82,21.67,0,110.2,13.34,11.33,78.2
"2010-04-05 01:05:00",1823447,9.42,120.6,5.842,1.295,14.24,104.4008,10.54,11.79,21.68,0,110.2,13.34,11.33,82.6
"2010-04-05 01:05:30",1823448,7.737,108.5,2.311,0.511,10.79,104.3983,10.53,11.58,21.39,0,110.2,13.34,11.32,70.5
"2010-04-05 01:06:00",1823449,8.95,113.2,6.94,1.283,12.8,104.3898,10.51,11.65,21.51,0,110.2,13.34,11.30,75.2
"2010-04-05 01:06:30",1823450,9.16,111.8,6.907,1.283,12.78,104.3833,10.49,11.68,21.59,0,110.2,13.34,11.28,73.8
"2010-04-05 01:07:00",1823451,9.57,114,5.91,1.231,12.99,104.3734,10.47,11.67,21.66,0,110.2,13.34,11.26,76.0
"2010-04-05 01:07:30",1823452,9.78,113.3,6.172,1.408,12.87,104.367,10.45,11.58,21.6,0,110.2,13.34,11.24,75.3
"2010-04-05 01:08:00",1823453,10.14,116.6,6.884,1.312,13.69,104.367,10.45,11.74,21.83,0,110.2,13.34,11.24,78.6
"2010-04-05 01:08:30",1823454,10.37,117,6.542,1.321,13.31,104.367,10.45,11.74,21.76,0,110.2,13.34,11.24,79.0
"2010-04-05 01:09:00",1823455,9.59,118.5,6.204,1.574,12.96,104.3661,10.45,11.56,21.62,0,110.2,13.34,11.24,80.5
"2010-04-05 01:09:30",1823456,8.75,117.2,3.882,1.316,12.51,104.3605,10.44,11.62,21.8,0,110.2,13.34,11.22,79.2
"2010-04-05 01:10:00",1823457,9.63,114.7,7.648,1.391,12.86,104.3514,10.41,11.58,21.67,0,110.2,13.34,11.20,76.7
"2010-04-05 01:10:30",1823458,9.15,112.1,6.969,1.074,12.31,104.3373,10.38,11.61,21.6,0,110.2,13.34,11.17,74.1
"2010-04-05 01:11:00",1823459,9.41,118.5,7.078,1.359,13.41,104.3331,10.37,11.71,21.75,0,110.2,13.34,11.15,80.5
"2010-04-05 01:11:30",1823460,9.89,117.1,6.4,1.182,13.97,104.3331,10.37,11.66,21.7,0,110.2,13.34,11.15,79.1
"2010-04-05 01:12:00",1823461,8.53,109.4,3.869,0.816,11.23,104.3334,10.37,11.53,21.49,0,110.2,13.34,11.16,71.4
"2010-04-05 01:12:30",1823462,9.67,118,5.911,1.214,12.59,104.3331,10.37,11.47,21.41,0,110.2,13.34,11.15,80.0
"2010-04-05 01:13:00",1823463,9.34,113.8,6.807,1.2,12.68,104.3346,10.37,11.65,21.61,0,110.2,13.34,11.16,75.8
"2010-04-05 01:13:30",1823464,9.17,114.1,6.672,1.364,11.98,104.3366,10.38,11.41,21.26,0,110.2,13.34,11.16,76.1
"2010-04-05 01:14:00",1823465,9.33,114.9,6.518,1.278,13.11,104.337,10.38,11.69,21.49,0,110.2,13.34,11.16,76.9
"2010-04-05 01:14:30",1823466,10.26,118.1,6.846,1.07,14.18,104.336,10.37,11.56,21.38,0,110.2,13.34,11.16,80.1
"2010-04-05 01:15:00",1823467,9.73,120.1,6.219,1.27,13.42,104.3329,10.37,11.55,21.44,0,110.2,13.34,11.15,82.1
"2010-04-05 01:15:30",1823468,9.41,121.6,6.241,1.259,12.72,104.3223,10.34,11.53,21.56,0,110.2,13.34,11.13,83.6
"2010-04-05 01:16:00",1823469,8.89,116.9,4.858,1.113,11.82,104.318,10.33,11.54,21.5,0,110.2,13.34,11.12,78.9
"2010-04-05 01:16:30",1823470,9.7,120.5,6.603,1.323,13.37,104.3172,10.33,11.51,21.39,0,110.2,13.34,11.11,82.5
"2010-04-05 01:17:00",1823471,8.79,115.5,4.689,1.039,11.26,104.3187,10.33,11.45,21.29,0,110.2,13.35,11.12,77.5
"2010-04-05 01:17:30",1823472,10.08,121.3,6.093,1.081,14.25,104.3231,10.34,11.6,21.39,0,110.2,13.35,11.13,83.3
"2010-04-05 01:18:00",1823473,9.47,117.6,6.916,1.298,13.48,104.3243,10.34,11.49,21.34,0,110.2,13.35,11.13,79.6
"2010-04-05 01:18:30",1823474,8.11,114.6,2.608,0.879,10.62,104.3272,10.35,11.39,21.28,0,110.2,13.35,11.14,76.6
"2010-04-05 01:19:00",1823475,8.76,121,7.387,1.233,12.62,104.3313,10.36,11.44,21.39,0,110.2,13.35,11.15,83.0
"2010-04-05 01:19:30",1823476,8.49,117,7.948,1.243,11.68,104.3337,10.37,11.43,21.61,0,110.2,13.35,11.16,79.0
"2010-04-05 01:20:00",1823477,9.25,114.9,6.727,1.397,12.77,104.334,10.37,11.48,21.93,0,110.2,13.35,11.16,76.9
"2010-04-05 01:20:30",1823478,10.15,118.5,6.534,1.169,13.48,104.3303,10.36,11.48,22.21,0,110.2,13.35,11.15,80.5
"2010-04-05 01:21:00",1823479,9.75,122.1,6.158,1.262,14.04,104.3151,10.32,11.56,22.32,0,110.2,13.35,11.11,84.1
"2010-04-05 01:21:30",1823480,8.48,115.5,5.64,0.92,11.41,104.3018,10.29,11.4,22.13,0,110.2,13.35,11.07,77.5
"2010-04-05 01:22:00",1823481,9.16,120.2,6.7,1.113,12.7,104.3007,10.28,11.44,22.37,0,110.2,13.35,11.07,82.2
"2010-04-05 01:22:30",1823482,8.9,117.8,6.103,1.085,11.41,104.3007,10.28,11.38,22.37,0,110.2,13.35,11.07,79.8
"2010-04-05 01:23:00",1823483,9.43,120.3,6.878,1.271,12.49,104.3007,10.28,11.44,22.43,0,110.2,13.35,11.07,82.3
"2010-04-05 01:23:30",1823484,9.38,121.1,7.196,1.291,13,104.2993,10.28,11.39,22.31,0,110.2,13.35,11.07,83.1
"2010-04-05 01:24:00",1823485,9.49,121.3,6.41,1.3,13.27,104.2917,10.26,11.5,22.44,0,110.2,13.35,11.05,83.3
"2010-04-05 01:24:30",1823486,9.68,122.5,6.251,1.219,13.6,104.2747,10.22,11.48,22.48,0,110.2,13.35,11.00,84.5
"2010-04-05 01:25:00",1823487,8.87,119.1,6.63,1.225,12.56,104.2671,10.2,11.39,22.36,0,110.2,13.35,10.98,81.1
"2010-04-05 01:25:30",1823488,8.41,115,5.043,0.995,10.94,104.2668,10.2,11.26,22.23,0,110.2,13.35,10.98,77.0
"2010-04-05 01:26:00",1823489,9.08,118.5,6.783,1.211,12.66,104.2668,10.2,11.43,22.4,0,110.2,13.35,10.98,80.5
"2010-04-05 01:26:30",1823490,9.61,120.7,7.077,1.335,13.01,104.2668,10.2,11.26,22.24,0,110.2,13.35,10.98,82.7
"2010-04-05 01:27:00",1823491,9.31,121.2,6.853,1.428,13.16,104.2652,10.19,11.45,22.42,0,110.2,13.35,10.98,83.2
"2010-04-05 01:27:30",1823492,9.8,124.3,6.19,1.174,14.28,104.2567,10.17,11.37,22.33,0,110.2,13.35,10.96,86.3
"2010-04-05 01:28:00",1823493,9,117,6.081,1.149,11.62,104.24,10.13,11.31,22.27,0,110.2,13.35,10.92,79.0
"2010-04-05 01:28:30",1823494,9.31,117.4,6.068,1.198,11.63,104.233,10.11,11.16,22.18,0,110.2,13.35,10.90,79.4
"2010-04-05 01:29:00",1823495,9.67,120.4,7.034,1.329,12.61,104.233,10.11,11.39,22.41,0,110.2,13.35,10.90,82.4
"2010-04-05 01:29:30",1823496,10.05,119.5,7.098,1.245,12.49,104.233,10.11,11.22,22.35,0,110.1,13.35,10.90,81.5
"2010-04-05 01:30:00",1823497,10.83,124.3,5.28,1.153,13.88,104.233,10.11,11.41,22.54,0,110.2,13.35,10.90,86.3
"2010-04-05 01:30:30",1823498,10.73,125.3,5.874,1.185,14.32,104.233,10.11,11.38,22.49,0,110.1,13.35,10.90,87.3
"2010-04-05 01:31:00",1823499,10.24,120.1,6.517,1.302,11.73,104.2271,10.09,11.12,22.31,0,110.2,13.35,10.88,82.1
"2010-04-05 01:31:30",1823500,9.67,118,5.611,1.196,11.77,104.2076,10.04,11.24,22.58,0,110.2,13.35,10.83,80.0
"2010-04-05 01:32:00",1823501,10.92,122.1,7.137,1.214,12.83,104.2019,10.03,11.25,22.66,0,110.2,13.35,10.82,84.1
"2010-04-05 01:32:30",1823502,11.07,124.5,6.36,1.202,13.71,104.1991,10.02,11.27,22.65,0,110.1,13.35,10.81,86.5
"2010-04-05 01:33:00",1823503,10.96,125.2,6.295,1.241,13.39,104.1991,10.02,11.31,22.68,0,110.1,13.36,10.81,87.2
"2010-04-05 01:33:30",1823504,10.81,125.6,5.834,1.301,13.44,104.1991,10.02,11.32,22.65,0,110.1,13.36,10.81,87.6
"2010-04-05 01:34:00",1823505,10.35,122.8,6.44,1.333,12.63,104.1991,10.02,11.14,22.48,0,110.1,13.36,10.81,84.8
"2010-04-05 01:34:30",1823506,9.45,119.7,4.234,0.996,10.62,104.198,10.02,11.08,22.38,0,110.1,13.36,10.81,81.7
"2010-04-05 01:35:00",1823507,10.59,127.7,6.291,1.225,13.69,104.1929,10.01,11.28,22.48,0,110.2,13.36,10.79,89.7
"2010-04-05 01:35:30",1823508,10.74,126.9,5.731,1.136,14.16,104.1805,9.98,11.2,22.5,0,110.2,13.36,10.76,88.9
"2010-04-05 01:36:00",1823509,10.64,124.3,6.239,1.22,13.61,104.1678,9.94,11.27,22.79,0,110.2,13.36,10.73,86.3
"2010-04-05 01:36:30",1823510,10.81,125.4,5.048,1.275,13.7,104.1653,9.94,11.24,22.73,0,110.2,13.36,10.72,87.4
"2010-04-05 01:37:00",1823511,10.5,119.2,6.562,1.267,12.27,104.1653,9.94,11.14,22.93,0,110.2,13.36,10.72,81.2
"2010-04-05 01:37:30",1823512,10.53,119.5,7.037,1.315,12.42,104.1658,9.94,11.12,23.02,0,110.2,13.36,10.72,81.5
"2010-04-05 01:38:00",1823513,10.57,117.4,6.93,1.306,12.14,104.1658,9.94,11.08,23.02,0,110.2,13.36,10.72,79.4
"2010-04-05 01:38:30",1823514,11.29,120.7,6.287,1.323,13.25,104.1659,9.94,11.16,23.2,0,110.2,13.36,10.73,82.7
"2010-04-05 01:39:00",1823515,11.4,122.7,5.91,1.19,13.89,104.1594,9.92,11.2,23.3,0,110.2,13.36,10.71,84.7
"2010-04-05 01:39:30",1823516,11.69,122.8,6.074,1.029,13.85,104.1506,9.9,11.16,23.35,0,110.1,13.36,10.69,84.8
"2010-04-05 01:40:00",1823517,10.08,116.7,5.26,1.163,11.08,104.1431,9.88,11,23.22,0,110.1,13.36,10.67,78.7
"2010-04-05 01:40:30",1823518,10.25,119.4,6.204,1.198,11.8,104.1361,9.86,11,23.25,0,110.1,13.36,10.65,81.4
"2010-04-05 01:41:00",1823519,10.59,121.4,6.759,1.248,12.89,104.1364,9.86,11.17,23.41,0,110.1,13.37,10.65,83.4
"2010-04-05 01:41:30",1823520,11.13,125.3,5.641,1.233,13.83,104.1399,9.87,11.11,23.35,0,110.1,13.37,10.66,87.3
"2010-04-05 01:42:00",1823521,10.87,124.8,6.098,1.208,13.68,104.1426,9.88,11.11,23.37,0,110.1,13.37,10.67,86.8
"2010-04-05 01:42:30",1823522,10.88,124.1,6.234,1.261,13.34,104.1434,9.88,11.13,23.32,0,110.1,13.37,10.67,86.1
"2010-04-05 01:43:00",1823523,10.41,121.4,6.505,1.31,11.84,104.145,9.88,10.9,23.04,0,110.1,13.37,10.67,83.4
"2010-04-05 01:43:30",1823524,10.27,121.8,6.529,1.277,12.31,104.1394,9.87,11,23.15,0,110.1,13.37,10.66,83.8
"2010-04-05 01:44:00",1823525,10.8,125.1,6.613,1.29,13.24,104.1344,9.86,11.1,23.28,0,110.1,13.36,10.64,87.1
"2010-04-05 01:44:30",1823526,11.21,126.6,6.151,1.148,13.8,104.13,9.85,11.09,23.37,0,110.1,13.36,10.63,88.6
"2010-04-05 01:45:00",1823527,11.04,127.2,5.991,1.191,13.91,104.1232,9.83,11.07,23.32,0,110.1,13.36,10.62,89.2
"2010-04-05 01:45:30",1823528,11.07,126.9,6.036,1.212,13.35,104.1222,9.83,11.1,23.47,0,110.1,13.36,10.61,88.9
"2010-04-05 01:46:00",1823529,10.02,122.6,6.111,1.132,11.61,104.1225,9.83,10.98,23.25,0,110.1,13.36,10.61,84.6
"2010-04-05 01:46:30",1823530,9.59,120.9,3.479,0.813,10.33,104.126,9.84,10.84,23.08,0,110.1,13.36,10.62,82.9
"2010-04-05 01:47:00",1823531,9.97,124.8,6.488,1.141,12.1,104.126,9.84,10.97,23.27,0,110.1,13.36,10.62,86.8
"2010-04-05 01:47:30",1823532,11,130.3,6.066,1.143,13.95,104.1278,9.84,11.11,23.45,0,110.1,13.36,10.63,92.3
"2010-04-05 01:48:00",1823533,10.87,130.4,5.661,1.159,14.07,104.1298,9.85,11.09,23.56,0,110.1,13.36,10.63,92.4